Regional Weather Roundup
Issued by NWS

Home | Current Version | Previous Version | Text Only | Print | Product List | Glossary On
Versions: 1 2 3 4 5 6 7 8 9 10 11 12 13 14 15 16 17 18 19 20 21 22 23 24 25 26 27 28 29 30 31 32 33 34 35 36 37 38 39 40 41 42 43 44 45 46 47 48 49 50
000
ASUS43 KLSX 120959
RWRMO

WEATHER SUMMARY FOR MISSOURI
NATIONAL WEATHER SERVICE SPRINGFIELD MO
500 AM CDT SAT JUL 12 2014

NOTE: "FAIR" INDICATES FEW OR NO CLOUDS BELOW 12,000 FEET WITH NO
       SIGNIFICANT WEATHER AND/OR OBSTRUCTIONS TO VISIBILITY.
       CURRENT SKY AND/OR WEATHER CONDITIONS ARE NOT AVAILABLE FOR
       CHILLICOTHE AND FARMINGTON.

MOZ001>031-035>038-043-044-053-054-121100-
...NORTHERN AND WESTERN MISSOURI...

CITY           SKY/WX    TMP DP  RH WIND       PRES   REMARKS
KANSAS CTY INT PTCLDY    77  68  73 SW10      30.05R
KANSAS C DTWN  PTCLDY    80  66  62 SW10      30.04R
LEE`S SUMMIT   CLEAR     77  68  73 SW9       30.07R
ST JOSEPH      CLOUDY    76  71  85 S6        30.03S
CHILLICOTHE      N/A     78  71  79 S5        30.05R
KIRKSVILLE     CLOUDY    78  71  79 SW7       30.05R

$$
MOZ066>068-077>081-088>096-101>105-121100-
...SOUTHWEST MISSOURI...

CITY           SKY/WX    TMP DP  RH WIND       PRES   REMARKS
SPRINGFIELD    CLEAR     73  69  87 S9        30.12S
JOPLIN         CLEAR     77  67  71 S12       30.11S

$$
MOZ032>034-039>042-045>050-055>058-069>072-121100-
...CENTRAL MISSOURI...

CITY           SKY/WX    TMP DP  RH WIND       PRES   REMARKS
COLUMBIA       CLOUDY    78  73  84 SW8       30.09R
ROLLA          MOCLDY    75  72  90 S8        30.11R
SEDALIA        MOCLDY    78  71  79 SW9       30.09R
OSAGE BEACH    PTCLDY    75  70  83 S3        30.10R

$$
MOZ051-052-059>065-121100-
...EAST CENTRAL MISSOURI...

CITY           SKY/WX    TMP DP  RH WIND       PRES   REMARKS
ST LOUIS INTL  CLOUDY    81  72  74 SW8       30.08F
SPIRIT OF STL  CLOUDY    77  71  82 SW5       30.07S
ST CHARLES     CLOUDY    78  72  81 SW6       30.06S

$$
MOZ072>076-082>087-097>100-106>115-121100-
...SOUTH CENTRAL AND SOUTHEAST MISSOURI...

CITY           SKY/WX    TMP DP  RH WIND       PRES   REMARKS
CAPE GIRARDEAU CLEAR     72  69  90 S3        30.12S
FARMINGTON     MOCLDY    73  72  94 S3        30.15S
POPLAR BLUFF   CLEAR     72  69  90 CALM      30.12S FOG
WEST PLAINS    CLOUDY    75  73  93 VRB6      30.16R FOG

$$



USA.gov is the U.S. government's official web portal to all federal, state and local government web resources and services.